Regional Weather Roundup
Issued by NWS Cleveland, OH

Home | Current Version | Previous Version | Text Only | Print | Product List | Glossary Off
Versions: 1 2 3 4 5 6 7 8 9 10 11 12 13 14 15 16 17 18 19 20 21 22 23 24 25 26 27 28 29 30 31 32 33 34 35 36 37 38 39 40 41 42 43 44 45 46 47 48 49 50

000
ASUS41 KCLE 290000
RWRCLE
OHIO REGIONAL WEATHER ROUNDUP
NATIONAL WEATHER SERVICE WILMINGTON, OH
800 PM EDT SAT MAY 28 2016

NOTE: "FAIR" INDICATES FEW OR NO CLOUDS BELOW 12,000 FEET WITH NO
SIGNIFICANT WEATHER AND/OR OBSTRUCTIONS TO VISIBILITY.

OHZ001>008-015>018-024>027-034-035-043-044-290100-
   NORTHWEST OHIO

CITY           SKY/WX    TMP DP  RH WIND       PRES   REMARKS
DEFIANCE       FAIR      80  64  58 S12       30.03R
FINDLAY        FAIR      78  65  63 S10       30.05R
TOLEDO EXPRESS FAIR      79  64  60 S13       30.03R
TOLEDO EXEC    FAIR      78  63  59 S13       30.04S
LIMA           FAIR      76  68  76 S6        30.07R
$$

OHZ009>014-019>023-028>033-038-089-290100-
   NORTHEAST OHIO

CITY           SKY/WX    TMP DP  RH WIND       PRES   REMARKS
CLE-HOPKINS    CLOUDY    73  65  75 S6        30.11R
CLE-LAKEFRONT  FAIR      70  67  90 CALM      30.08S
CUY CO. ARPT   MOCLDY    73  68  83 NW14      30.10R
LORAIN-ELYRIA  FAIR      71  67  87 S6        30.10R
ASHTABULA      FAIR      79  75  87 N3        30.08R
AKRON-CANTON   MOCLDY    78  61  55 W9        30.10R
WOOSTER        NOT AVBL
MANSFIELD      CLOUDY    73  69  87 S6        30.11S
YOUNGSTOWN     FAIR      83  63  50 SW6       30.09R
$$

OHZ042-051>053-060>062-070>072-077>081-290100-
  SOUTHWEST OHIO

CITY           SKY/WX    TMP DP  RH WIND       PRES   REMARKS
CINC-COVINGTON MOCLDY    78  62  57 SW7       30.09R
CINC-LUNKEN    FAIR      77  63  61 SW8       30.07R
HAMILTON       FAIR      80  62  54 SW7       30.08R
DAYTON         NOT AVBL
WRIGHT-PAT AFB NOT AVBL
DAYTON GENERAL FAIR      80  62  54 SW8       30.07S
WILMINGTON     FAIR      77  68  73 SW6       30.09R
$$

OHZ036-037-039>041-045>050-054>059-063>069-073>076-082>088-290100-
  CENTRAL AND SOUTHEAST OHIO

CITY           SKY/WX    TMP DP  RH WIND       PRES   REMARKS
COLUMBUS       MOCLDY    77  68  73 CALM      30.08R
OSU AIRPORT    FAIR      74  69  85 NE5       30.10R
BOLTON FIELD   NOT AVBL
RICKENBACK AFB NOT AVBL
NEWARK         FAIR      76  68  76 CALM      30.09S
MARION         FAIR      71  65  81 S8        30.09R
LANCASTER      FAIR      74  69  85 CALM      30.10R
ZANESVILLE     FAIR      81  66  60 W7        30.10R
NEW PHILLY     FAIR      86  64  47 SW5       30.09R
$$




USA.gov is the U.S. government's official web portal to all federal, state and local government web resources and services.